Time,TemperatureF,DewpointF,PressureIn,WindDirection,WindDirectionDegrees,WindSpeedMPH,WindSpeedGustMPH,Humidity,HourlyPrecipIn,Conditions,Clouds,dailyrainin,SoftwareType,DateUTC
2013-02-28 00:00:00,31.5,30.2,29.82,North,349,10.0,14.0,95,0.00,,,0.00,meteohub,2013-02-28 06:00:00,
2013-02-28 00:05:00,31.5,30.2,29.82,NNW,340,10.0,14.0,95,0.00,,,0.00,meteohub,2013-02-28 06:05:00,
2013-02-28 00:10:00,31.5,30.2,29.82,NNW,338,11.0,14.0,95,0.00,,,0.00,meteohub,2013-02-28 06:10:00,
2013-02-28 00:16:00,31.5,30.2,29.82,NNW,344,12.0,14.0,95,0.00,,,0.00,meteohub,2013-02-28 06:16:00,
2013-02-28 00:21:00,31.5,30.2,29.82,North,350,10.0,13.0,95,0.00,,,0.00,meteohub,2013-02-28 06:21:00,
2013-02-28 00:26:00,31.6,30.4,29.82,NNW,334,9.0,14.0,95,0.00,,,0.00,meteohub,2013-02-28 06:26:00,
2013-02-28 00:31:00,31.6,30.4,29.82,NNW,340,9.0,14.0,95,0.00,,,0.00,meteohub,2013-02-28 06:31:00,
2013-02-28 00:36:00,31.6,30.2,29.82,NNW,340,12.0,14.0,94,0.00,,,0.00,meteohub,2013-02-28 06:36:00,
2013-02-28 00:42:00,31.6,30.2,29.82,NNW,340,12.0,14.0,94,0.00,,,0.00,meteohub,2013-02-28 06:42:00,
2013-02-28 00:47:00,31.6,30.2,29.82,NNW,342,11.0,14.0,94,0.00,,,0.00,meteohub,2013-02-28 06:47:00,
2013-02-28 00:52:00,31.5,30.0,29.83,NNW,340,12.0,14.0,94,0.00,,,0.00,meteohub,2013-02-28 06:52:00,
2013-02-28 00:57:00,31.5,30.0,29.83,NNW,338,11.0,14.0,94,0.00,,,0.00,meteohub,2013-02-28 06:57:00,
2013-02-28 01:02:00,31.5,30.0,29.83,North,351,11.0,14.0,94,0.00,,,0.00,meteohub,2013-02-28 07:02:00,
2013-02-28 01:07:00,31.5,30.2,29.83,NNW,346,11.0,13.0,95,0.00,,,0.00,meteohub,2013-02-28 07:07:00,
2013-02-28 01:12:00,31.5,30.2,29.83,NNW,336,10.0,13.0,95,0.00,,,0.00,meteohub,2013-02-28 07:12:00,
2013-02-28 01:18:00,31.5,30.2,29.83,NNW,340,8.0,13.0,95,0.00,,,0.00,meteohub,2013-02-28 07:18:00,
2013-02-28 01:23:00,31.5,30.2,29.83,NNW,336,10.0,13.0,95,0.00,,,0.00,meteohub,2013-02-28 07:23:00,
2013-02-28 01:28:00,31.5,30.2,29.84,NNW,344,10.0,16.0,95,0.00,,,0.00,meteohub,2013-02-28 07:28:00,
2013-02-28 01:33:00,31.5,30.2,29.84,North,355,14.0,17.0,95,0.00,,,0.00,meteohub,2013-02-28 07:33:00,
2013-02-28 01:38:00,31.5,30.2,29.84,NNW,338,9.0,17.0,95,0.00,,,0.00,meteohub,2013-02-28 07:38:00,
2013-02-28 01:43:00,31.5,30.2,29.84,NNW,341,10.0,17.0,95,0.00,,,0.00,meteohub,2013-02-28 07:43:00,
2013-02-28 01:49:00,31.5,30.2,29.84,NNW,346,12.0,17.0,95,0.00,,,0.00,meteohub,2013-02-28 07:49:00,
2013-02-28 01:54:00,31.5,30.2,29.84,NNW,339,11.0,17.0,95,0.00,,,0.00,meteohub,2013-02-28 07:54:00,
2013-02-28 01:59:00,31.5,30.2,29.84,North,351,12.0,17.0,95,0.00,,,0.00,meteohub,2013-02-28 07:59:00,
2013-02-28 02:04:00,31.5,30.2,29.84,NNW,344,11.0,16.0,95,0.00,,,0.00,meteohub,2013-02-28 08:04:00,
2013-02-28 02:09:00,31.5,30.2,29.84,NNW,347,10.0,18.0,95,0.00,,,0.00,meteohub,2013-02-28 08:09:00,
2013-02-28 02:14:00,31.5,30.2,29.84,NNW,347,13.0,18.0,95,0.00,,,0.00,meteohub,2013-02-28 08:14:00,
2013-02-28 02:20:00,31.6,30.2,29.84,NNW,347,10.0,18.0,94,0.00,,,0.00,meteohub,2013-02-28 08:20:00,
2013-02-28 02:25:00,31.6,30.2,29.84,NNW,336,11.0,16.0,94,0.00,,,0.00,meteohub,2013-02-28 08:25:00,
2013-02-28 02:30:00,31.5,30.0,29.84,NNW,341,10.0,15.0,94,0.00,,,0.00,meteohub,2013-02-28 08:30:00,
2013-02-28 02:35:00,31.5,30.0,29.84,NNW,333,10.0,15.0,94,0.00,,,0.00,meteohub,2013-02-28 08:35:00,
2013-02-28 02:41:00,31.5,30.2,29.85,NNW,343,10.0,14.0,95,0.00,,,0.00,meteohub,2013-02-28 08:41:00,
2013-02-28 02:46:00,31.5,30.2,29.85,NNW,338,11.0,16.0,95,0.00,,,0.00,meteohub,2013-02-28 08:46:00,
2013-02-28 02:51:00,31.5,30.2,29.85,NNW,346,11.0,16.0,95,0.00,,,0.00,meteohub,2013-02-28 08:51:00,
2013-02-28 02:56:00,31.5,30.2,29.85,North,355,10.0,15.0,95,0.00,,,0.00,meteohub,2013-02-28 08:56:00,
2013-02-28 03:01:00,31.5,30.2,29.85,NNW,337,12.0,16.0,95,0.00,,,0.00,meteohub,2013-02-28 09:01:00,
2013-02-28 03:06:00,31.5,30.2,29.86,NNW,346,13.0,16.0,95,0.00,,,0.00,meteohub,2013-02-28 09:06:00,
2013-02-28 03:12:00,31.3,30.0,29.86,North,349,14.0,15.0,95,0.00,,,0.00,meteohub,2013-02-28 09:12:00,
2013-02-28 03:17:00,31.3,30.0,29.86,North,355,11.0,17.0,95,0.00,,,0.00,meteohub,2013-02-28 09:17:00,
2013-02-28 03:22:00,31.3,30.0,29.86,North,350,9.0,17.0,95,0.00,,,0.00,meteohub,2013-02-28 09:22:00,
2013-02-28 03:27:00,31.3,30.0,29.86,NNW,346,13.0,17.0,95,0.00,,,0.00,meteohub,2013-02-28 09:27:00,
2013-02-28 03:32:00,31.3,30.0,29.86,North,355,10.0,15.0,95,0.00,,,0.00,meteohub,2013-02-28 09:32:00,
2013-02-28 03:37:00,31.3,30.0,29.87,North,350,11.0,13.0,95,0.00,,,0.00,meteohub,2013-02-28 09:37:00,
2013-02-28 03:42:00,31.1,29.8,29.87,NNW,336,11.0,13.0,95,0.00,,,0.00,meteohub,2013-02-28 09:42:00,
2013-02-28 03:47:00,31.1,29.8,29.87,NNW,342,9.0,13.0,95,0.00,,,0.00,meteohub,2013-02-28 09:47:00,
2013-02-28 03:52:00,31.1,29.8,29.87,North,355,8.0,13.0,95,0.00,,,0.00,meteohub,2013-02-28 09:52:00,
2013-02-28 03:57:00,31.1,29.8,29.87,NNW,340,9.0,13.0,95,0.00,,,0.00,meteohub,2013-02-28 09:57:00,
2013-02-28 04:02:00,31.1,29.8,29.88,NNW,342,9.0,13.0,95,0.00,,,0.00,meteohub,2013-02-28 10:02:00,
2013-02-28 04:07:00,31.1,29.8,29.88,NNW,342,9.0,13.0,95,0.00,,,0.00,meteohub,2013-02-28 10:07:00,
2013-02-28 04:12:00,31.1,29.8,29.88,NNW,338,9.0,13.0,95,0.00,,,0.00,meteohub,2013-02-28 10:12:00,
2013-02-28 04:17:00,31.1,29.8,29.88,NNW,342,9.0,13.0,95,0.00,,,0.00,meteohub,2013-02-28 10:17:00,
2013-02-28 04:22:00,30.9,29.7,29.88,NNW,348,8.0,13.0,95,0.00,,,0.00,meteohub,2013-02-28 10:22:00,
2013-02-28 04:28:00,30.9,29.7,29.88,NNW,345,9.0,13.0,95,0.00,,,0.00,meteohub,2013-02-28 10:28:00,
2013-02-28 04:33:00,30.9,29.7,29.89,North,350,8.0,14.0,95,0.00,,,0.00,meteohub,2013-02-28 10:33:00,
2013-02-28 04:38:00,31.1,29.8,29.89,North,355,8.0,14.0,95,0.00,,,0.00,meteohub,2013-02-28 10:38:00,
2013-02-28 04:43:00,31.1,29.8,29.89,North,0,11.0,14.0,95,0.00,,,0.00,meteohub,2013-02-28 10:43:00,
2013-02-28 04:48:00,31.1,29.8,29.89,North,0,7.0,14.0,95,0.00,,,0.00,meteohub,2013-02-28 10:48:00,
2013-02-28 04:54:00,31.3,30.0,29.89,North,355,11.0,14.0,95,0.00,,,0.00,meteohub,2013-02-28 10:54:00,
2013-02-28 04:59:00,31.3,30.0,29.89,North,355,9.0,14.0,95,0.00,,,0.00,meteohub,2013-02-28 10:59:00,
2013-02-28 05:04:00,31.3,30.0,29.89,North,0,8.0,13.0,95,0.00,,,0.00,meteohub,2013-02-28 11:04:00,
2013-02-28 05:09:00,31.3,30.0,29.89,North,355,8.0,13.0,95,0.00,,,0.00,meteohub,2013-02-28 11:09:00,
2013-02-28 05:14:00,31.5,30.2,29.90,North,350,11.0,12.0,95,0.00,,,0.00,meteohub,2013-02-28 11:14:00,
2013-02-28 05:20:00,31.5,30.0,29.90,North,351,11.0,14.0,94,0.00,,,0.00,meteohub,2013-02-28 11:20:00,
2013-02-28 05:25:00,31.3,29.8,29.90,North,355,8.0,15.0,94,0.00,,,0.00,meteohub,2013-02-28 11:25:00,
2013-02-28 05:30:00,31.3,29.8,29.90,NNE,14,9.0,14.0,94,0.00,,,0.00,meteohub,2013-02-28 11:30:00,
2013-02-28 05:35:00,31.3,29.8,29.90,North,355,8.0,14.0,94,0.00,,,0.00,meteohub,2013-02-28 11:35:00,
2013-02-28 05:40:00,31.3,29.8,29.90,North,11,11.0,14.0,94,0.00,,,0.00,meteohub,2013-02-28 11:40:00,
2013-02-28 05:45:00,31.5,30.0,29.91,North,5,11.0,14.0,94,0.00,,,0.00,meteohub,2013-02-28 11:45:00,
2013-02-28 05:51:00,31.5,29.7,29.91,North,0,8.0,14.0,93,0.00,,,0.00,meteohub,2013-02-28 11:51:00,
2013-02-28 05:56:00,31.5,29.7,29.91,North,0,8.0,13.0,93,0.00,,,0.00,meteohub,2013-02-28 11:56:00,
2013-02-28 06:01:00,31.5,29.7,29.91,North,355,9.0,12.0,93,0.00,,,0.00,meteohub,2013-02-28 12:01:00,
2013-02-28 06:06:00,31.5,29.7,29.91,North,355,9.0,12.0,93,0.00,,,0.00,meteohub,2013-02-28 12:06:00,
2013-02-28 06:12:00,31.5,29.7,29.91,North,355,12.0,15.0,93,0.00,,,0.00,meteohub,2013-02-28 12:12:00,
2013-02-28 06:17:00,31.5,29.7,29.91,North,350,11.0,15.0,93,0.00,,,0.00,meteohub,2013-02-28 12:17:00,
2013-02-28 06:22:00,31.5,29.5,29.91,North,11,12.0,15.0,92,0.00,,,0.00,meteohub,2013-02-28 12:22:00,
2013-02-28 06:27:00,31.5,29.5,29.91,North,0,12.0,14.0,92,0.00,,,0.00,meteohub,2013-02-28 12:27:00,
2013-02-28 06:32:00,31.5,29.5,29.92,NNW,342,10.0,14.0,92,0.00,,,0.00,meteohub,2013-02-28 12:32:00,
2013-02-28 06:37:00,31.6,29.7,29.92,North,351,12.0,14.0,92,0.00,,,0.00,meteohub,2013-02-28 12:37:00,
2013-02-28 06:42:00,31.6,29.7,29.93,NNE,13,11.0,20.0,92,0.00,,,0.00,meteohub,2013-02-28 12:42:00,
2013-02-28 06:47:00,31.6,29.7,29.93,North,355,14.0,20.0,92,0.00,,,0.00,meteohub,2013-02-28 12:47:00,
2013-02-28 06:52:00,31.5,29.5,29.93,North,355,10.0,20.0,92,0.00,,,0.00,meteohub,2013-02-28 12:52:00,
2013-02-28 06:57:00,31.5,29.5,29.93,North,355,13.0,17.0,92,0.00,,,0.00,meteohub,2013-02-28 12:57:00,
2013-02-28 07:02:00,31.5,29.5,29.93,North,355,13.0,16.0,92,0.00,,,0.00,meteohub,2013-02-28 13:02:00,
2013-02-28 07:07:00,31.5,29.5,29.94,North,5,11.0,16.0,92,0.00,,,0.00,meteohub,2013-02-28 13:07:00,
2013-02-28 07:12:00,31.5,29.5,29.94,North,0,11.0,17.0,92,0.00,,,0.00,meteohub,2013-02-28 13:12:00,
2013-02-28 07:17:00,31.5,29.5,29.94,North,0,11.0,18.0,92,0.00,,,0.00,meteohub,2013-02-28 13:17:00,
2013-02-28 07:22:00,31.5,29.5,29.94,North,355,12.0,18.0,92,0.00,,,0.00,meteohub,2013-02-28 13:22:00,
2013-02-28 07:27:00,31.5,29.5,29.94,North,0,14.0,18.0,92,0.00,,,0.00,meteohub,2013-02-28 13:27:00,
2013-02-28 07:32:00,31.5,29.5,29.95,North,351,13.0,18.0,92,0.00,,,0.00,meteohub,2013-02-28 13:32:00,
2013-02-28 07:37:00,31.5,29.5,29.95,North,5,12.0,18.0,92,0.00,,,0.00,meteohub,2013-02-28 13:37:00,
2013-02-28 07:42:00,31.5,29.5,29.95,North,355,11.0,18.0,92,0.00,,,0.00,meteohub,2013-02-28 13:42:00,
2013-02-28 07:47:00,31.5,29.5,29.95,NNW,348,13.0,18.0,92,0.00,,,0.00,meteohub,2013-02-28 13:47:00,
2013-02-28 07:52:00,31.3,29.5,29.96,NNW,338,11.0,16.0,93,0.00,,,0.00,meteohub,2013-02-28 13:52:00,
2013-02-28 07:57:00,31.3,29.5,29.96,North,355,13.0,14.0,93,0.00,,,0.00,meteohub,2013-02-28 13:57:00,
2013-02-28 08:02:00,31.3,29.5,29.96,NNW,347,15.0,17.0,93,0.00,,,0.00,meteohub,2013-02-28 14:02:00,
2013-02-28 08:07:00,31.3,29.5,29.96,North,350,12.0,18.0,93,0.00,,,0.00,meteohub,2013-02-28 14:07:00,
2013-02-28 08:12:00,31.3,29.3,29.96,NNW,348,12.0,18.0,92,0.00,,,0.00,meteohub,2013-02-28 14:12:00,
2013-02-28 08:17:00,31.3,29.3,29.96,NNW,345,13.0,18.0,92,0.00,,,0.00,meteohub,2013-02-28 14:17:00,
2013-02-28 08:22:00,31.3,29.3,29.96,North,355,12.0,18.0,92,0.00,,,0.00,meteohub,2013-02-28 14:22:00,
2013-02-28 08:27:00,31.3,29.3,29.96,North,355,13.0,18.0,92,0.00,,,0.00,meteohub,2013-02-28 14:27:00,
2013-02-28 08:32:00,31.3,29.3,29.97,North,355,15.0,19.0,92,0.00,,,0.00,meteohub,2013-02-28 14:32:00,
2013-02-28 08:37:00,31.3,28.9,29.97,North,355,13.0,19.0,91,0.00,,,0.00,meteohub,2013-02-28 14:37:00,
2013-02-28 08:42:00,31.3,28.9,29.97,North,0,14.0,19.0,91,0.00,,,0.00,meteohub,2013-02-28 14:42:00,
2013-02-28 08:47:00,31.3,28.9,29.97,North,0,11.0,19.0,91,0.00,,,0.00,meteohub,2013-02-28 14:47:00,
2013-02-28 08:52:00,31.3,28.9,29.97,North,5,12.0,22.0,91,0.00,,,0.00,meteohub,2013-02-28 14:52:00,
2013-02-28 08:57:00,31.3,28.8,29.98,North,0,17.0,22.0,90,0.00,,,0.00,meteohub,2013-02-28 14:57:00,
2013-02-28 09:02:00,31.3,28.8,29.98,North,355,13.0,22.0,90,0.00,,,0.00,meteohub,2013-02-28 15:02:00,
2013-02-28 09:08:00,31.3,28.8,29.98,North,0,17.0,21.0,90,0.00,,,0.00,meteohub,2013-02-28 15:08:00,
2013-02-28 09:13:00,31.3,28.4,29.98,NNW,346,16.0,21.0,89,0.00,,,0.00,meteohub,2013-02-28 15:13:00,
2013-02-28 09:18:00,31.5,28.6,29.98,North,355,13.0,20.0,89,0.00,,,0.00,meteohub,2013-02-28 15:18:00,
2013-02-28 09:23:00,31.5,28.4,29.99,North,5,12.0,20.0,88,0.00,,,0.00,meteohub,2013-02-28 15:23:00,
2013-02-28 09:28:00,31.6,28.6,29.99,North,350,17.0,20.0,88,0.00,,,0.00,meteohub,2013-02-28 15:28:00,
2013-02-28 09:33:00,31.6,28.2,29.99,North,355,13.0,20.0,87,0.00,,,0.00,meteohub,2013-02-28 15:33:00,
2013-02-28 09:39:00,32.0,28.2,29.99,North,5,18.0,20.0,86,0.00,,,0.00,meteohub,2013-02-28 15:39:00,
2013-02-28 09:44:00,32.2,27.7,29.99,NNE,16,18.0,21.0,83,0.00,,,0.00,meteohub,2013-02-28 15:44:00,
2013-02-28 09:49:00,32.4,28.4,29.99,North,350,17.0,25.0,85,0.00,,,0.00,meteohub,2013-02-28 15:49:00,
2013-02-28 09:54:00,31.8,27.5,29.99,North,355,18.0,25.0,84,0.00,,,0.00,meteohub,2013-02-28 15:54:00,
2013-02-28 10:00:00,31.8,27.9,29.99,North,5,16.0,25.0,85,0.00,,,0.00,meteohub,2013-02-28 16:00:00,
2013-02-28 10:05:00,31.8,27.9,29.99,North,11,19.0,25.0,85,0.00,,,0.00,meteohub,2013-02-28 16:05:00,
2013-02-28 10:10:00,31.8,27.5,29.99,North,0,18.0,25.0,84,0.00,,,0.00,meteohub,2013-02-28 16:10:00,
2013-02-28 10:15:00,31.6,27.7,30.00,North,0,13.0,24.0,85,0.00,,,0.00,meteohub,2013-02-28 16:15:00,
2013-02-28 10:20:00,31.6,27.9,30.00,North,355,15.0,24.0,86,0.00,,,0.00,meteohub,2013-02-28 16:20:00,
2013-02-28 10:26:00,31.6,28.2,30.00,North,355,15.0,24.0,87,0.00,,,0.00,meteohub,2013-02-28 16:26:00,
2013-02-28 10:31:00,31.6,28.2,30.00,North,11,14.0,22.0,87,0.00,,,0.00,meteohub,2013-02-28 16:31:00,
2013-02-28 10:36:00,31.6,27.9,30.00,North,355,16.0,21.0,86,0.00,,,0.00,meteohub,2013-02-28 16:36:00,
2013-02-28 10:41:00,31.6,27.3,30.00,NNE,13,15.0,21.0,84,0.00,,,0.00,meteohub,2013-02-28 16:41:00,
2013-02-28 10:46:00,31.8,27.5,30.01,North,355,15.0,23.0,84,0.00,,,0.00,meteohub,2013-02-28 16:46:00,
2013-02-28 10:51:00,31.8,27.3,30.01,North,351,20.0,23.0,83,0.00,,,0.00,meteohub,2013-02-28 16:51:00,
2013-02-28 10:57:00,32.0,27.1,30.01,NNE,12,12.0,22.0,82,0.00,,,0.00,meteohub,2013-02-28 16:57:00,
2013-02-28 11:02:00,32.0,26.6,30.01,North,0,17.0,26.0,80,0.00,,,0.00,meteohub,2013-02-28 17:02:00,
2013-02-28 11:07:00,32.0,27.1,30.01,North,0,16.0,26.0,82,0.00,,,0.00,meteohub,2013-02-28 17:07:00,
2013-02-28 11:12:00,31.6,27.1,30.02,North,10,17.0,26.0,83,0.00,,,0.00,meteohub,2013-02-28 17:12:00,
2013-02-28 11:17:00,31.5,27.0,30.02,NNW,331,15.0,23.0,83,0.00,,,0.00,meteohub,2013-02-28 17:17:00,
2013-02-28 11:22:00,31.3,26.8,30.02,North,5,14.0,23.0,83,0.00,,,0.00,meteohub,2013-02-28 17:22:00,
2013-02-28 11:27:00,31.5,27.0,30.02,NNW,346,15.0,24.0,83,0.00,,,0.00,meteohub,2013-02-28 17:27:00,
2013-02-28 11:32:00,31.5,27.0,30.02,NNW,347,17.0,24.0,83,0.00,,,0.00,meteohub,2013-02-28 17:32:00,
2013-02-28 11:37:00,31.5,27.0,30.03,North,350,14.0,22.0,83,0.00,,,0.00,meteohub,2013-02-28 17:37:00,
2013-02-28 11:42:00,31.5,27.0,30.03,NNW,340,15.0,19.0,83,0.00,,,0.00,meteohub,2013-02-28 17:42:00,
2013-02-28 11:47:00,31.5,27.1,30.03,NNW,348,13.0,19.0,84,0.00,,,0.00,meteohub,2013-02-28 17:47:00,
2013-02-28 11:52:00,31.3,26.8,30.03,North,349,14.0,19.0,83,0.00,,,0.00,meteohub,2013-02-28 17:52:00,
2013-02-28 11:57:00,31.3,26.8,30.03,North,0,13.0,19.0,83,0.00,,,0.00,meteohub,2013-02-28 17:57:00,
2013-02-28 12:03:00,31.5,27.0,30.03,North,5,14.0,18.0,83,0.00,,,0.00,meteohub,2013-02-28 18:03:00,
2013-02-28 12:08:00,31.5,27.0,30.03,North,0,15.0,21.0,83,0.00,,,0.00,meteohub,2013-02-28 18:08:00,
2013-02-28 12:13:00,31.6,27.1,30.03,North,355,9.0,21.0,83,0.00,,,0.00,meteohub,2013-02-28 18:13:00,
2013-02-28 12:18:00,31.6,27.1,30.03,North,350,14.0,19.0,83,0.00,,,0.00,meteohub,2013-02-28 18:18:00,
2013-02-28 12:23:00,31.6,27.1,30.03,North,355,14.0,19.0,83,0.00,,,0.00,meteohub,2013-02-28 18:23:00,
2013-02-28 12:29:00,31.5,27.0,30.03,NNW,346,13.0,18.0,83,0.00,,,0.00,meteohub,2013-02-28 18:29:00,
2013-02-28 12:34:00,31.5,27.0,30.03,NNW,347,15.0,18.0,83,0.00,,,0.00,meteohub,2013-02-28 18:34:00,
2013-02-28 12:39:00,31.5,27.0,30.03,NNW,340,12.0,20.0,83,0.00,,,0.00,meteohub,2013-02-28 18:39:00,
2013-02-28 12:44:00,31.3,26.8,30.03,NNW,345,16.0,20.0,83,0.00,,,0.00,meteohub,2013-02-28 18:44:00,
2013-02-28 12:50:00,31.1,26.8,30.03,NNW,340,18.0,19.0,84,0.00,,,0.00,meteohub,2013-02-28 18:50:00,
2013-02-28 12:55:00,30.9,26.6,30.03,North,350,17.0,21.0,84,0.00,,,0.00,meteohub,2013-02-28 18:55:00,
2013-02-28 13:00:00,30.9,27.0,30.03,North,0,11.0,21.0,85,0.00,,,0.00,meteohub,2013-02-28 19:00:00,
2013-02-28 13:05:00,31.1,27.1,30.03,North,355,12.0,21.0,85,0.00,,,0.00,meteohub,2013-02-28 19:05:00,
2013-02-28 13:11:00,31.1,26.8,30.03,North,355,15.0,20.0,84,0.00,,,0.00,meteohub,2013-02-28 19:11:00,
2013-02-28 13:16:00,30.9,26.6,30.03,North,0,15.0,18.0,84,0.00,,,0.00,meteohub,2013-02-28 19:16:00,
2013-02-28 13:21:00,30.9,26.4,30.03,North,355,15.0,22.0,83,0.00,,,0.00,meteohub,2013-02-28 19:21:00,
2013-02-28 13:26:00,30.9,26.4,30.03,North,349,15.0,22.0,83,0.00,,,0.00,meteohub,2013-02-28 19:26:00,
2013-02-28 13:31:00,30.9,26.4,30.03,North,5,15.0,22.0,83,0.00,,,0.00,meteohub,2013-02-28 19:31:00,
2013-02-28 13:37:00,30.9,26.1,30.03,North,355,18.0,20.0,82,0.00,,,0.00,meteohub,2013-02-28 19:37:00,
2013-02-28 13:42:00,30.9,26.4,30.03,NNW,343,18.0,20.0,83,0.00,,,0.00,meteohub,2013-02-28 19:42:00,
2013-02-28 13:47:00,30.6,26.1,30.03,North,355,13.0,20.0,83,0.00,,,0.00,meteohub,2013-02-28 19:47:00,
2013-02-28 13:52:00,30.7,26.4,30.04,North,355,14.0,20.0,84,0.00,,,0.00,meteohub,2013-02-28 19:52:00,
2013-02-28 13:57:00,30.7,26.2,30.04,North,351,19.0,20.0,83,0.00,,,0.00,meteohub,2013-02-28 19:57:00,
2013-02-28 14:02:00,30.6,26.2,30.04,NNW,342,17.0,20.0,84,0.00,,,0.00,meteohub,2013-02-28 20:02:00,
2013-02-28 14:07:00,30.4,26.1,30.04,North,355,15.0,21.0,84,0.00,,,0.00,meteohub,2013-02-28 20:07:00,
2013-02-28 14:12:00,30.4,26.1,30.04,North,5,14.0,21.0,84,0.00,,,0.00,meteohub,2013-02-28 20:12:00,
2013-02-28 14:17:00,30.2,25.9,30.04,NNW,342,16.0,21.0,84,0.00,,,0.00,meteohub,2013-02-28 20:17:00,
2013-02-28 14:22:00,30.2,25.9,30.04,North,355,17.0,21.0,84,0.00,,,0.00,meteohub,2013-02-28 20:22:00,
2013-02-28 14:27:00,30.0,25.7,30.04,NNW,343,17.0,21.0,84,0.00,,,0.00,meteohub,2013-02-28 20:27:00,
2013-02-28 14:32:00,30.0,25.7,30.04,North,355,14.0,21.0,84,0.00,,,0.00,meteohub,2013-02-28 20:32:00,
2013-02-28 14:37:00,30.0,25.7,30.04,North,355,15.0,21.0,84,0.00,,,0.00,meteohub,2013-02-28 20:37:00,
2013-02-28 14:42:00,30.0,25.7,30.05,NNW,341,13.0,21.0,84,0.00,,,0.00,meteohub,2013-02-28 20:42:00,
2013-02-28 14:47:00,30.0,25.5,30.05,North,355,15.0,19.0,83,0.00,,,0.00,meteohub,2013-02-28 20:47:00,
2013-02-28 14:52:00,30.2,25.7,30.05,North,0,11.0,19.0,83,0.00,,,0.00,meteohub,2013-02-28 20:52:00,
2013-02-28 14:57:00,30.2,25.3,30.05,North,355,13.0,19.0,82,0.00,,,0.00,meteohub,2013-02-28 20:57:00,
2013-02-28 15:02:00,30.2,25.3,30.05,North,0,10.0,19.0,82,0.00,,,0.00,meteohub,2013-02-28 21:02:00,
2013-02-28 15:07:00,30.2,25.3,30.05,North,0,13.0,18.0,82,0.00,,,0.00,meteohub,2013-02-28 21:07:00,
2013-02-28 15:12:00,30.0,25.2,30.05,North,9,13.0,18.0,82,0.00,,,0.00,meteohub,2013-02-28 21:12:00,
2013-02-28 15:17:00,30.2,25.2,30.05,North,0,13.0,17.0,81,0.00,,,0.00,meteohub,2013-02-28 21:17:00,
2013-02-28 15:22:00,30.0,25.0,30.06,NNE,17,14.0,15.0,81,0.00,,,0.00,meteohub,2013-02-28 21:22:00,
2013-02-28 15:27:00,29.8,24.8,30.06,North,5,10.0,16.0,81,0.00,,,0.00,meteohub,2013-02-28 21:27:00,
2013-02-28 15:32:00,29.7,24.3,30.06,North,5,11.0,17.0,80,0.00,,,0.00,meteohub,2013-02-28 21:32:00,
2013-02-28 15:37:00,29.7,24.6,30.06,North,9,13.0,17.0,81,0.00,,,0.00,meteohub,2013-02-28 21:37:00,
2013-02-28 15:42:00,29.5,24.1,30.07,NNE,22,14.0,18.0,80,0.00,,,0.00,meteohub,2013-02-28 21:42:00,
2013-02-28 15:47:00,29.5,23.7,30.07,NNE,13,10.0,18.0,79,0.00,,,0.00,meteohub,2013-02-28 21:47:00,
2013-02-28 15:52:00,29.3,23.5,30.07,North,5,8.0,18.0,79,0.00,,,0.00,meteohub,2013-02-28 21:52:00,
2013-02-28 15:57:00,29.3,23.9,30.07,NNE,17,10.0,16.0,80,0.00,,,0.00,meteohub,2013-02-28 21:57:00,
2013-02-28 16:02:00,29.1,23.7,30.07,North,9,11.0,16.0,80,0.00,,,0.00,meteohub,2013-02-28 22:02:00,
2013-02-28 16:07:00,29.1,23.7,30.07,NNE,12,11.0,16.0,80,0.00,,,0.00,meteohub,2013-02-28 22:07:00,
2013-02-28 16:12:00,28.9,23.5,30.08,NNE,17,9.0,16.0,80,0.00,,,0.00,meteohub,2013-02-28 22:12:00,
2013-02-28 16:17:00,28.9,23.5,30.08,NNE,15,10.0,15.0,80,0.00,,,0.00,meteohub,2013-02-28 22:17:00,
2013-02-28 16:22:00,28.9,23.9,30.08,NNE,19,11.0,15.0,81,0.00,,,0.00,meteohub,2013-02-28 22:22:00,
2013-02-28 16:27:00,28.9,23.9,30.08,NNE,17,7.0,15.0,81,0.00,,,0.00,meteohub,2013-02-28 22:27:00,
2013-02-28 16:32:00,28.9,23.9,30.08,North,5,12.0,14.0,81,0.00,,,0.00,meteohub,2013-02-28 22:32:00,
2013-02-28 16:37:00,28.9,23.9,30.08,North,10,10.0,14.0,81,0.00,,,0.00,meteohub,2013-02-28 22:37:00,
2013-02-28 16:42:00,28.8,23.7,30.08,NNE,26,9.0,14.0,81,0.00,,,0.00,meteohub,2013-02-28 22:42:00,
2013-02-28 16:47:00,28.8,23.7,30.09,NNE,12,14.0,15.0,81,0.00,,,0.00,meteohub,2013-02-28 22:47:00,
2013-02-28 16:52:00,28.8,23.7,30.09,North,9,9.0,17.0,81,0.00,,,0.00,meteohub,2013-02-28 22:52:00,
2013-02-28 16:57:00,28.8,23.7,30.09,North,11,16.0,17.0,81,0.00,,,0.00,meteohub,2013-02-28 22:57:00,
2013-02-28 17:02:00,28.6,23.5,30.09,NNE,24,13.0,17.0,81,0.00,,,0.00,meteohub,2013-02-28 23:02:00,
2013-02-28 17:07:00,28.6,23.7,30.09,North,5,12.0,17.0,82,0.00,,,0.00,meteohub,2013-02-28 23:07:00,
2013-02-28 17:12:00,28.6,23.2,30.09,NNE,15,12.0,17.0,80,0.00,,,0.00,meteohub,2013-02-28 23:12:00,
2013-02-28 17:17:00,28.6,22.8,30.09,NNE,12,12.0,17.0,79,0.00,,,0.00,meteohub,2013-02-28 23:17:00,
2013-02-28 17:22:00,28.4,22.6,30.09,NNE,24,16.0,19.0,79,0.00,,,0.00,meteohub,2013-02-28 23:22:00,
2013-02-28 17:27:00,28.4,22.5,30.10,NNE,22,14.0,20.0,78,0.00,,,0.00,meteohub,2013-02-28 23:27:00,
2013-02-28 17:32:00,28.2,22.6,30.10,North,11,13.0,20.0,79,0.00,,,0.00,meteohub,2013-02-28 23:32:00,
2013-02-28 17:37:00,28.2,22.3,30.10,NNE,27,13.0,20.0,78,0.00,,,0.00,meteohub,2013-02-28 23:37:00,
2013-02-28 17:42:00,28.0,22.1,30.10,NNE,26,14.0,17.0,78,0.00,,,0.00,meteohub,2013-02-28 23:42:00,
2013-02-28 17:47:00,28.0,22.1,30.10,NNE,15,12.0,18.0,78,0.00,,,0.00,meteohub,2013-02-28 23:47:00,
2013-02-28 17:52:00,28.0,22.1,30.11,North,11,12.0,18.0,78,0.00,,,0.00,meteohub,2013-02-28 23:52:00,
2013-02-28 17:57:00,27.9,21.9,30.11,North,5,14.0,17.0,78,0.00,,,0.00,meteohub,2013-02-28 23:57:00,
2013-02-28 18:02:00,27.9,22.3,30.11,NNE,30,12.0,17.0,79,0.00,,,0.00,meteohub,2013-03-01 00:02:00,
2013-02-28 18:07:00,27.9,22.3,30.12,NNE,18,8.0,17.0,79,0.00,,,0.00,meteohub,2013-03-01 00:07:00,
2013-02-28 18:12:00,27.9,22.5,30.12,NNE,30,9.0,16.0,80,0.00,,,0.00,meteohub,2013-03-01 00:12:00,
2013-02-28 18:17:00,27.9,22.5,30.12,NNE,32,9.0,15.0,80,0.00,,,0.00,meteohub,2013-03-01 00:17:00,
2013-02-28 18:23:00,27.7,22.3,30.12,NNE,12,11.0,16.0,80,0.00,,,0.00,meteohub,2013-03-01 00:23:00,
2013-02-28 18:28:00,27.7,22.3,30.12,NNE,12,8.0,16.0,80,0.00,,,0.00,meteohub,2013-03-01 00:28:00,
2013-02-28 18:33:00,27.9,22.3,30.12,North,9,8.0,16.0,79,0.00,,,0.00,meteohub,2013-03-01 00:33:00,
2013-02-28 18:38:00,27.9,22.3,30.12,NNE,14,10.0,18.0,79,0.00,,,0.00,meteohub,2013-03-01 00:38:00,
2013-02-28 18:43:00,27.9,22.3,30.12,North,10,13.0,18.0,79,0.00,,,0.00,meteohub,2013-03-01 00:43:00,
2013-02-28 18:49:00,27.7,22.1,30.12,North,11,9.0,18.0,79,0.00,,,0.00,meteohub,2013-03-01 00:49:00,
2013-02-28 18:54:00,27.7,22.1,30.13,North,0,11.0,16.0,79,0.00,,,0.00,meteohub,2013-03-01 00:54:00,
2013-02-28 18:59:00,27.7,22.1,30.13,NNE,24,14.0,18.0,79,0.00,,,0.00,meteohub,2013-03-01 00:59:00,
2013-02-28 19:04:00,27.5,21.9,30.13,North,5,14.0,18.0,79,0.00,,,0.00,meteohub,2013-03-01 01:04:00,
2013-02-28 19:09:00,27.5,21.6,30.13,NNE,15,10.0,19.0,78,0.00,,,0.00,meteohub,2013-03-01 01:09:00,
2013-02-28 19:15:00,27.3,21.7,30.13,NNE,22,9.0,19.0,79,0.00,,,0.00,meteohub,2013-03-01 01:15:00,
2013-02-28 19:20:00,27.1,21.6,30.13,NNE,20,8.0,17.0,79,0.00,,,0.00,meteohub,2013-03-01 01:20:00,
2013-02-28 19:25:00,27.1,21.7,30.13,NNE,23,10.0,15.0,80,0.00,,,0.00,meteohub,2013-03-01 01:25:00,
2013-02-28 19:30:00,27.0,21.9,30.13,NNE,24,9.0,14.0,81,0.00,,,0.00,meteohub,2013-03-01 01:30:00,
2013-02-28 19:35:00,26.8,22.1,30.14,NNE,24,10.0,14.0,82,0.00,,,0.00,meteohub,2013-03-01 01:35:00,
2013-02-28 19:41:00,26.6,22.1,30.14,NNE,29,11.0,15.0,83,0.00,,,0.00,meteohub,2013-03-01 01:41:00,
2013-02-28 19:46:00,26.2,22.1,30.14,NNE,17,8.0,15.0,84,0.00,,,0.00,meteohub,2013-03-01 01:46:00,
2013-02-28 19:51:00,26.1,21.9,30.14,NNE,28,11.0,16.0,84,0.00,,,0.00,meteohub,2013-03-01 01:51:00,
2013-02-28 19:57:00,26.1,21.9,30.15,NNE,30,12.0,16.0,84,0.00,,,0.00,meteohub,2013-03-01 01:57:00,
2013-02-28 20:02:00,25.9,21.7,30.15,NE,34,10.0,16.0,84,0.00,,,0.00,meteohub,2013-03-01 02:02:00,
2013-02-28 20:07:00,25.9,21.7,30.15,NE,34,12.0,16.0,84,0.00,,,0.00,meteohub,2013-03-01 02:07:00,
2013-02-28 20:12:00,25.7,21.6,30.15,NNE,21,12.0,16.0,84,0.00,,,0.00,meteohub,2013-03-01 02:12:00,
2013-02-28 20:17:00,25.5,21.0,30.15,NNE,24,14.0,18.0,83,0.00,,,0.00,meteohub,2013-03-01 02:17:00,
2013-02-28 20:22:00,25.3,21.2,30.15,NNE,15,15.0,20.0,84,0.00,,,0.00,meteohub,2013-03-01 02:22:00,
2013-02-28 20:27:00,25.2,21.0,30.16,NNE,30,13.0,22.0,84,0.00,,,0.00,meteohub,2013-03-01 02:27:00,
2013-02-28 20:32:00,25.2,21.0,30.16,North,9,15.0,22.0,84,0.00,,,0.00,meteohub,2013-03-01 02:32:00,
2013-02-28 20:37:00,25.2,21.0,30.16,NNE,27,10.0,18.0,84,0.00,,,0.00,meteohub,2013-03-01 02:37:00,
2013-02-28 20:42:00,25.0,21.2,30.17,NNE,22,10.0,17.0,85,0.00,,,0.00,meteohub,2013-03-01 02:42:00,
2013-02-28 20:47:00,25.0,21.2,30.17,NNE,31,8.0,17.0,85,0.00,,,0.00,meteohub,2013-03-01 02:47:00,
2013-02-28 20:52:00,25.0,20.8,30.17,NNE,28,12.0,15.0,84,0.00,,,0.00,meteohub,2013-03-01 02:52:00,
2013-02-28 20:57:00,25.0,20.8,30.17,NNE,33,12.0,15.0,84,0.00,,,0.00,meteohub,2013-03-01 02:57:00,
2013-02-28 21:02:00,25.0,20.5,30.17,NNE,24,10.0,16.0,83,0.00,,,0.00,meteohub,2013-03-01 03:02:00,
2013-02-28 21:07:00,24.8,20.3,30.17,North,355,12.0,16.0,83,0.00,,,0.00,meteohub,2013-03-01 03:07:00,
2013-02-28 21:12:00,24.8,20.3,30.17,NNE,33,7.0,16.0,83,0.00,,,0.00,meteohub,2013-03-01 03:12:00,
2013-02-28 21:17:00,24.6,20.1,30.18,NNE,32,10.0,16.0,83,0.00,,,0.00,meteohub,2013-03-01 03:17:00,
2013-02-28 21:22:00,24.6,20.1,30.18,NNE,26,11.0,17.0,83,0.00,,,0.00,meteohub,2013-03-01 03:22:00,
2013-02-28 21:27:00,24.6,20.1,30.18,NNE,26,9.0,17.0,83,0.00,,,0.00,meteohub,2013-03-01 03:27:00,
2013-02-28 21:32:00,24.6,20.1,30.18,NNE,28,8.0,17.0,83,0.00,,,0.00,meteohub,2013-03-01 03:32:00,
2013-02-28 21:37:00,24.4,19.9,30.18,NNE,25,13.0,16.0,83,0.00,,,0.00,meteohub,2013-03-01 03:37:00,
2013-02-28 21:42:00,24.6,19.9,30.18,North,10,17.0,17.0,82,0.00,,,0.00,meteohub,2013-03-01 03:42:00,
2013-02-28 21:47:00,24.4,19.8,30.18,NNE,14,16.0,18.0,82,0.00,,,0.00,meteohub,2013-03-01 03:47:00,
2013-02-28 21:52:00,24.4,19.8,30.18,NNE,19,10.0,18.0,82,0.00,,,0.00,meteohub,2013-03-01 03:52:00,
2013-02-28 21:57:00,24.4,19.8,30.18,NNE,13,12.0,18.0,82,0.00,,,0.00,meteohub,2013-03-01 03:57:00,
2013-02-28 22:02:00,24.4,19.8,30.18,NNE,14,14.0,18.0,82,0.00,,,0.00,meteohub,2013-03-01 04:02:00,
2013-02-28 22:07:00,24.4,19.9,30.17,North,5,11.0,15.0,83,0.00,,,0.00,meteohub,2013-03-01 04:07:00,
2013-02-28 22:12:00,24.3,20.1,30.18,North,11,7.0,15.0,84,0.00,,,0.00,meteohub,2013-03-01 04:12:00,
2013-02-28 22:17:00,24.1,20.3,30.18,NNE,13,12.0,15.0,85,0.00,,,0.00,meteohub,2013-03-01 04:17:00,
2013-02-28 22:22:00,24.1,20.5,30.17,NNE,20,14.0,15.0,86,0.00,,,0.00,meteohub,2013-03-01 04:22:00,
2013-02-28 22:27:00,24.1,20.5,30.17,NNE,13,9.0,16.0,86,0.00,,,0.00,meteohub,2013-03-01 04:27:00,
2013-02-28 22:32:00,23.9,20.3,30.17,NNE,13,12.0,16.0,86,0.00,,,0.00,meteohub,2013-03-01 04:32:00,
2013-02-28 22:37:00,23.9,20.7,30.17,North,11,13.0,16.0,87,0.00,,,0.00,meteohub,2013-03-01 04:37:00,
2013-02-28 22:42:00,23.7,20.5,30.17,NNE,15,11.0,17.0,87,0.00,,,0.00,meteohub,2013-03-01 04:42:00,
2013-02-28 22:47:00,23.7,20.5,30.17,NNE,12,11.0,17.0,87,0.00,,,0.00,meteohub,2013-03-01 04:47:00,
2013-02-28 22:53:00,23.7,20.5,30.17,NNE,15,11.0,17.0,87,0.00,,,0.00,meteohub,2013-03-01 04:53:00,
2013-02-28 22:58:00,23.5,20.3,30.17,NNE,17,10.0,16.0,87,0.00,,,0.00,meteohub,2013-03-01 04:58:00,
2013-02-28 23:00:00,23.5,20.5,30.17,North,355,11.0,16.0,88,0.00,,,0.00,meteohub,2013-03-01 05:00:00,
2013-02-28 23:01:00,23.5,20.5,30.17,North,0,14.0,16.0,88,0.00,,,0.00,meteohub,2013-03-01 05:01:00,
2013-02-28 23:02:00,23.5,20.5,30.17,NNE,17,11.0,16.0,88,0.00,,,0.00,meteohub,2013-03-01 05:02:00,
2013-02-28 23:07:00,23.5,20.5,30.17,North,0,13.0,16.0,88,0.00,,,0.00,meteohub,2013-03-01 05:07:00,
2013-02-28 23:08:00,23.5,20.5,30.17,North,5,11.0,16.0,88,0.00,,,0.00,meteohub,2013-03-01 05:08:00,
2013-02-28 23:13:00,23.5,20.8,30.17,North,5,10.0,17.0,89,0.00,,,0.00,meteohub,2013-03-01 05:13:00,
2013-02-28 23:18:00,23.4,20.7,30.17,North,9,9.0,17.0,89,0.00,,,0.00,meteohub,2013-03-01 05:18:00,
2013-02-28 23:23:00,23.4,20.7,30.17,North,5,9.0,17.0,89,0.00,,,0.00,meteohub,2013-03-01 05:23:00,
2013-02-28 23:28:00,23.4,20.8,30.17,North,355,9.0,17.0,90,0.00,,,0.00,meteohub,2013-03-01 05:28:00,
2013-02-28 23:34:00,23.2,20.7,30.17,NNW,347,8.0,15.0,90,0.00,,,0.00,meteohub,2013-03-01 05:34:00,
2013-02-28 23:39:00,23.2,20.7,30.17,North,355,8.0,13.0,90,0.00,,,0.00,meteohub,2013-03-01 05:39:00,
2013-02-28 23:44:00,23.2,20.7,30.17,North,355,10.0,13.0,90,0.00,,,0.00,meteohub,2013-03-01 05:44:00,
2013-02-28 23:49:00,23.2,20.7,30.17,North,355,10.0,14.0,90,0.00,,,0.00,meteohub,2013-03-01 05:49:00,
2013-02-28 23:54:00,23.2,20.7,30.17,North,0,10.0,14.0,90,0.00,,,0.00,meteohub,2013-03-01 05:54:00,